Tracking 29091 objects as of 17-Jul-2024
HD Live streaming from Space Station
objects crossing your sky now

SL-8 DEB

Track SL-8 DEB now!
10-day predictions


NORAD ID: 20435
Int'l Code: 1990-004D
Perigee: 693.7 km
Apogee: 713.0 km
Inclination: 74.0 °
Period: 98.7 minutes
Semi major axis: 7074 km
RCS: 0.0066 m2 (small)
Launch date: January 18, 1990
Source: Commonwealth of Independent States (former USSR) (CIS)
Launch site: PLESETSK MISSILE AND SPACE COMPLEX (PKMTR)

Note: This is SATELLITE DEBRIS
Your satellite tracking list
Your tracking list is empty




NASA's NSSDC Master Catalog

Two Line Element Set (TLE):
1 20435U 90004D   24198.81195052  .00004031  00000-0  86229-3 0  9990
2 20435  74.0246 211.1899 0013631  14.3682  41.8694 14.59047405820021
Source of the keplerian elements: AFSPC